Wetbulb
66.51 69.37 71.44 71.94 72.00 71.74 71.27 71.38 71.35 71.26 71.41 71.27 70.94 70.32 70.15 70.03 69.75 69.41 68.83 68.28 67.73 66.27 65.66 65.42 65.72 65.63 65.72 66.18 66.18 66.57 66.57 66.49 66.95 69.58 69.71 69.72 69.27 69.01 68.10 68.63 69.24 67.95 70.07
67.56 69.11 70.86 71.19 71.41 71.42 71.45 71.47 71.20 71.18 70.91 69.80 69.67 70.08 69.72 69.36 69.17 68.68 68.22 67.72 66.74 65.77 66.34 66.12 65.82 65.65 66.47 66.43 66.26 66.58 67.05 67.23 67.62 68.18 69.19 69.11 68.90 69.20 68.20 69.04 69.00 68.09 69.51
67.63 68.88 69.79 70.76 71.13 71.30 71.73 71.53 71.30 70.86 69.58 68.75 69.09 69.31 68.95 68.61 68.05 68.07 67.51 67.04 66.99 65.95 65.86 65.53 65.37 65.53 65.60 65.37 65.11 65.20 65.75 66.81 67.13 67.74 68.39 66.36 65.41 67.68 68.21 68.75 68.62 68.75 69.56
68.29 68.46 69.21 70.69 70.91 71.24 71.30 71.07 70.41 69.87 68.85 68.97 68.78 68.41 68.17 67.21 66.45 66.64 67.59 66.88 66.87 65.31 64.71 64.60 64.40 63.93 63.48 63.19 63.54 64.23 65.29 65.45 65.45 65.81 63.77 64.93 64.98 66.89 65.81 65.68 66.73 67.49 68.22
67.62 68.71 69.83 70.20 70.33 70.58 70.97 70.67 70.00 69.35 68.76 68.43 67.95 67.16 66.39 66.16 66.58 66.59 67.18 66.89 66.95 65.67 65.29 64.97 64.32 63.60 63.32 64.23 64.29 64.63 64.86 64.88 64.79 64.18 62.83 63.66 63.93 66.07 66.17 65.02 64.02 65.88 67.55
67.75 68.96 69.05 68.76 69.27 70.11 70.73 70.42 69.89 69.01 68.14 67.74 67.47 67.27 66.11 66.56 66.72 66.93 67.21 67.05 66.08 65.83 65.59 65.43 65.08 64.60 65.45 64.89 64.46 64.49 64.20 64.12 64.16 60.28 60.43 63.19 63.03 66.08 65.16 64.57 65.46 65.32 66.19
67.61 68.25 68.42 67.61 68.46 69.99 70.22 69.97 69.38 68.54 67.80 67.37 67.12 66.83 66.76 66.09 66.31 66.46 66.76 66.64 65.87 65.42 65.42 65.18 65.05 64.84 65.26 65.08 64.61 64.06 63.54 63.38 60.95 58.27 58.83 61.08 62.67 65.28 64.59 64.18 63.91 64.37 64.65
67.41 67.46 67.68 68.27 68.65 69.04 69.36 68.89 68.57 68.10 67.58 66.90 66.62 66.60 66.30 66.14 66.51 66.53 66.47 66.43 66.26 65.84 65.35 64.98 64.78 64.59 64.40 64.25 64.02 63.40 63.01 63.39 60.66 58.40 59.26 60.10 64.39 65.02 64.54 64.03 65.35 65.02 65.00
67.30 66.70 66.81 67.42 68.53 67.81 67.38 67.41 67.34 67.43 67.15 66.71 66.57 66.36 66.32 66.10 65.91 66.22 66.31 66.08 65.78 65.78 65.52 65.11 64.69 63.76 63.64 63.63 63.00 62.96 62.68 63.19 59.17 59.70 60.10 59.89 64.41 64.47 64.46 64.08 64.74 65.25 64.89
64.27 65.93 66.71 67.16 67.81 66.70 66.00 66.56 66.48 66.55 66.07 65.63 65.68 65.39 64.85 65.01 65.40 65.85 65.72 65.49 65.10 64.65 64.46 64.33 64.09 63.17 63.59 62.70 62.76 61.90 62.30 62.42 57.13 57.86 58.37 59.88 64.08 64.02 64.30 64.41 63.84 64.25 65.69
63.63 64.83 66.11 66.28 66.98 65.89 65.59 66.09 66.34 66.67 65.73 64.87 64.76 64.99 63.70 63.55 63.53 64.63 64.43 64.55 63.80 63.64 64.10 63.91 63.18 62.30 63.57 63.25 63.37 63.26 62.23 57.15 57.04 56.68 56.50 61.85 62.25 62.58 62.93 63.46 63.81 64.09 64.15
60.41 64.04 65.60 66.45 66.88 65.69 63.79 64.12 64.09 64.25 63.29 63.41 63.47 63.29 64.26 65.73 64.34 64.42 63.92 63.78 62.72 62.55 63.25 63.09 62.52 62.90 62.63 58.67 58.18 60.26 56.62 56.86 55.72 55.23 55.29 60.47 60.23 60.11 61.18 62.19 62.41 62.52 62.42
63.50 64.69 65.76 65.32 65.89 63.85 63.53 63.44 63.45 63.91 65.24 65.30 65.99 66.32 66.11 66.60 65.49 63.80 63.79 61.17 60.75 61.76 62.12 60.26 61.22 59.91 59.40 58.49 57.18 56.88 56.45 55.14 54.10 54.31 56.30 58.77 58.80 58.24 58.37 59.56 60.20 60.23 59.97
64.60 64.91 65.89 65.39 65.11 63.63 63.57 62.62 62.73 65.10 64.99 66.32 66.24 66.33 65.60 64.94 64.60 63.65 62.03 62.13 61.76 61.01 60.49 60.38 60.03 59.74 58.91 58.15 56.88 56.50 55.77 54.27 54.18 53.83 54.75 58.03 57.93 56.69 56.79 57.26 57.70 57.93 57.51
63.49 64.72 64.02 64.42 63.95 63.60 64.25 65.04 65.42 65.66 66.09 66.52 65.99 65.25 65.64 64.07 63.46 63.35 61.88 59.79 59.38 59.82 59.70 58.70 57.82 57.15 55.69 55.16 55.91 54.96 54.58 54.25 54.01 53.69 52.86 57.21 57.13 55.71 55.69 56.25 56.35 55.94 55.85
62.98 63.31 63.52 63.44 64.13 64.45 65.41 65.31 64.46 64.18 63.89 63.46 63.18 64.25 64.67 63.30 62.65 61.43 59.88 59.15 59.49 57.52 56.87 55.98 54.77 54.21 54.42 54.99 54.11 54.61 54.43 53.62 52.48 51.97 52.05 52.23 56.19 56.59 55.12 54.59 54.01 53.72 53.41
62.65 62.96 62.69 62.55 64.00 64.92 64.39 63.56 62.83 61.97 61.89 61.88 62.49 63.15 62.80 61.26 60.29 59.41 58.59 56.48 55.87 56.26 54.82 54.51 54.45 54.32 53.54 54.00 52.80 52.83 52.45 51.65 49.43 49.69 50.59 49.84 51.42 55.48 54.50 52.94 52.01 51.91 52.34
62.79 62.63 62.86 63.85 64.56 63.89 62.39 61.90 60.37 60.99 61.89 61.10 60.71 59.03 58.45 58.63 58.97 56.34 56.35 55.88 55.72 55.71 54.74 53.59 53.59 52.50 51.89 51.65 50.37 49.40 48.94 48.41 48.03 48.41 47.94 48.29 47.92 51.28 52.80 52.70 51.07 51.46 51.71
63.28 63.39 63.93 64.76 63.37 62.20 61.94 62.28 62.03 62.19 59.59 58.72 58.29 57.51 57.41 57.44 57.74 56.88 56.39 55.82 55.35 54.39 54.00 53.98 52.31 51.22 49.07 48.14 47.71 45.90 46.56 46.23 46.80 48.22 47.61 48.72 50.06 50.57 49.95 53.47 53.77 53.11 50.00
64.45 64.08 63.87 64.56 63.43 62.61 62.23 61.93 61.41 60.06 59.05 58.67 58.20 57.30 57.71 57.53 57.65 56.88 55.27 54.33 54.43 53.53 52.18 51.55 50.54 49.66 47.34 45.97 47.46 46.60 45.68 45.39 45.27 45.91 46.92 49.05 47.82 48.18 48.89 47.61 47.46 46.85 50.30
64.75 63.69 63.49 62.83 62.59 62.19 61.47 60.52 59.41 57.94 58.11 58.32 58.25 58.18 57.58 56.69 56.12 55.46 54.66 53.96 53.28 51.13 50.17 48.99 47.38 46.43 45.47 45.94 43.36 42.48 42.46 43.01 42.78 43.89 43.46 43.38 44.24 45.98 44.95 45.32 43.52 42.60 43.43
63.73 63.32 62.43 62.15 62.11 62.82 62.71 61.65 60.91 59.17 58.56 58.23 57.08 56.58 56.38 55.74 54.93 54.84 52.98 51.73 50.52 48.77 47.99 48.00 46.77 44.98 44.48 44.72 41.27 40.34 37.15 38.97 41.25 41.97 41.19 42.34 41.35 43.40 43.49 43.59 43.09 43.35 41.31
63.12 63.20 62.32 62.33 62.68 63.08 63.11 62.07 60.67 59.65 57.05 55.46 55.26 54.82 54.51 54.88 53.92 52.67 51.56 50.15 49.27 48.65 47.12 47.11 45.96 44.68 41.43 42.34 43.32 39.60 35.85 33.52 36.62 38.98 39.04 39.97 39.59 39.26 40.20 41.70 42.04 42.60 41.67
62.54 63.45 63.46 63.22 63.32 63.37 62.45 60.00 58.37 56.39 54.07 55.36 55.55 54.46 53.81 54.23 52.66 51.58 50.81 49.96 49.52 48.59 47.28 46.66 46.54 43.96 42.76 40.35 41.36 43.35 40.52 38.08 33.68 32.32 36.24 37.29 38.10 38.83 38.03 38.80 39.77 40.69 40.76
62.38 62.86 63.62 63.54 62.64 60.83 60.16 59.44 58.04 55.24 55.46 54.52 53.11 51.89 51.44 52.26 52.15 51.05 50.25 48.44 47.16 46.92 46.75 46.52 45.58 43.74 43.04 40.88 39.51 39.17 39.03 37.04 36.13 32.74 30.46 32.45 35.94 37.06 37.55 37.42 37.88 38.21 39.56
62.43 62.99 62.32 61.76 59.28 59.44 58.54 58.45 57.02 54.51 52.28 50.62 49.95 49.40 50.11 49.25 48.70 48.27 47.56 45.74 45.68 45.12 44.73 44.75 45.22 45.39 41.85 41.31 40.90 39.82 38.15 35.01 33.75 32.34 30.79 31.77 32.62 34.41 35.75 36.45 36.69 36.92 37.78
MSLP
1012.57 1013.63 1014.41 1014.94 1015.47 1015.99 1016.30 1016.44 1016.81 1017.12 1017.38 1017.75 1017.98 1018.36 1018.64 1018.90 1019.09 1019.12 1019.19 1019.39 1019.52 1019.67 1019.76 1019.88 1019.96 1019.91 1019.81 1019.77 1019.87 1019.62 1019.42 1019.28 1019.36 1019.30 1019.31 1019.38 1019.20 1018.99 1019.20 1019.18 1018.71 1018.75 1018.84
1012.65 1013.40 1014.30 1014.97 1015.84 1016.30 1016.51 1016.67 1017.09 1017.44 1017.90 1018.18 1018.31 1018.62 1019.02 1019.22 1019.47 1019.53 1019.65 1019.67 1019.91 1020.01 1020.13 1020.38 1020.24 1020.38 1020.12 1020.18 1020.21 1019.93 1019.62 1019.72 1019.88 1019.83 1019.73 1019.60 1019.57 1019.16 1019.45 1019.56 1019.42 1019.29 1019.09
1012.82 1013.52 1014.48 1014.93 1015.84 1016.53 1016.77 1016.65 1017.45 1017.54 1018.30 1018.69 1018.89 1019.11 1019.38 1019.66 1019.70 1020.03 1020.18 1020.25 1020.25 1020.48 1020.51 1020.74 1020.56 1020.72 1020.64 1020.47 1020.34 1020.20 1019.96 1019.81 1019.77 1020.24 1019.84 1019.79 1019.95 1019.64 1019.90 1019.94 1019.78 1019.55 1019.29
1013.04 1013.64 1014.55 1015.23 1016.16 1016.67 1016.78 1017.11 1017.89 1017.93 1018.42 1018.91 1018.97 1019.34 1019.75 1020.18 1020.18 1020.28 1020.54 1020.53 1020.57 1020.75 1020.81 1020.89 1021.03 1020.95 1020.74 1020.85 1020.59 1020.53 1020.17 1019.82 1019.61 1019.39 1019.68 1019.66 1019.94 1020.49 1020.36 1020.37 1020.26 1020.10 1019.72
1013.26 1014.16 1015.09 1015.63 1016.34 1016.89 1016.99 1017.43 1018.21 1018.51 1018.93 1019.08 1019.30 1019.60 1019.95 1020.42 1020.58 1020.68 1020.88 1020.85 1021.02 1021.11 1021.25 1021.25 1021.39 1021.45 1021.39 1021.17 1020.84 1020.57 1020.19 1019.89 1019.31 1019.62 1019.72 1020.18 1020.51 1020.91 1020.91 1020.83 1020.87 1020.50 1020.28
1013.68 1014.82 1015.61 1016.30 1016.64 1017.19 1017.18 1017.92 1018.76 1019.02 1019.53 1019.33 1019.55 1019.94 1020.41 1020.60 1020.85 1021.21 1021.24 1021.39 1021.42 1021.50 1021.61 1021.67 1021.69 1021.66 1021.78 1021.56 1021.32 1020.81 1020.35 1019.88 1019.41 1019.59 1020.12 1020.83 1021.14 1021.12 1021.05 1021.07 1021.07 1020.90 1020.72
1014.77 1015.35 1016.22 1016.94 1017.16 1017.34 1017.87 1018.26 1019.05 1019.45 1019.94 1019.81 1019.89 1020.31 1020.58 1021.03 1021.26 1021.55 1021.72 1021.72 1021.81 1021.90 1022.11 1022.09 1021.95 1021.94 1022.07 1021.91 1021.64 1021.35 1020.79 1020.58 1020.10 1020.19 1020.69 1021.11 1021.43 1021.36 1021.37 1021.38 1021.26 1020.96 1020.89
1015.11 1015.79 1016.62 1017.27 1017.41 1018.09 1018.71 1019.24 1019.43 1019.93 1020.21 1020.24 1020.35 1020.68 1021.00 1021.40 1021.66 1021.89 1021.89 1022.13 1022.27 1022.22 1022.17 1022.38 1022.35 1022.32 1022.03 1021.97 1021.81 1021.59 1021.39 1020.85 1020.45 1020.35 1021.11 1021.47 1021.67 1021.57 1021.58 1021.68 1021.54 1021.31 1020.99
1015.79 1016.50 1017.00 1017.61 1018.00 1018.65 1019.45 1019.58 1019.86 1020.23 1020.46 1020.46 1020.71 1021.00 1021.32 1021.55 1021.70 1022.13 1022.25 1022.35 1022.42 1022.45 1022.61 1022.34 1022.43 1022.34 1022.36 1022.12 1021.68 1021.59 1021.65 1021.19 1020.84 1021.07 1021.31 1021.75 1021.72 1021.69 1021.80 1021.74 1021.59 1021.52 1021.34
1016.84 1017.29 1017.55 1017.69 1017.82 1018.79 1019.33 1019.79 1020.24 1020.57 1020.72 1020.77 1020.91 1021.27 1021.38 1021.52 1021.80 1021.88 1021.97 1022.45 1022.43 1022.87 1022.60 1022.45 1022.37 1022.23 1022.46 1022.19 1021.89 1021.69 1021.61 1021.21 1021.13 1021.15 1021.85 1022.05 1021.69 1021.67 1021.89 1021.91 1021.69 1021.59 1021.48
1017.64 1018.04 1017.70 1017.68 1018.08 1018.66 1019.39 1019.84 1020.39 1020.80 1020.90 1020.83 1021.14 1021.15 1021.36 1021.35 1021.44 1021.83 1021.92 1022.22 1022.42 1022.64 1022.43 1022.40 1022.09 1021.94 1022.23 1022.21 1022.21 1022.19 1021.90 1021.78 1021.50 1021.42 1022.06 1022.11 1021.76 1021.81 1022.09 1022.16 1021.98 1021.78 1021.64
1017.69 1017.43 1017.72 1017.60 1017.74 1018.41 1019.10 1020.02 1020.47 1020.57 1020.79 1020.83 1020.99 1021.11 1021.38 1021.11 1021.08 1021.32 1021.62 1021.78 1022.09 1022.09 1022.27 1022.27 1022.14 1022.06 1022.25 1022.15 1022.27 1022.31 1022.50 1022.27 1021.88 1021.73 1022.31 1022.19 1021.97 1021.88 1022.10 1022.26 1022.22 1022.17 1022.19
1016.92 1017.21 1017.31 1017.00 1017.49 1018.40 1019.19 1019.59 1019.73 1020.08 1020.32 1020.72 1020.85 1020.96 1020.98 1020.68 1021.05 1021.23 1021.92 1021.94 1021.73 1021.83 1022.04 1022.12 1022.09 1022.19 1022.09 1022.29 1022.36 1022.53 1022.59 1022.56 1022.48 1022.28 1022.55 1022.40 1022.22 1022.20 1022.16 1022.23 1022.43 1022.48 1022.47
1016.71 1016.86 1017.10 1017.37 1017.72 1018.49 1018.56 1018.90 1019.01 1019.52 1020.31 1020.76 1020.84 1020.72 1020.87 1020.93 1021.11 1021.10 1021.22 1021.32 1021.39 1021.76 1021.67 1021.95 1022.09 1022.11 1022.28 1022.38 1022.46 1022.53 1022.67 1022.67 1022.61 1022.43 1022.63 1022.32 1022.32 1022.40 1022.29 1022.34 1022.47 1022.68 1022.72
1016.04 1016.47 1016.99 1017.48 1017.92 1017.99 1018.34 1018.72 1019.11 1019.93 1020.39 1020.89 1021.01 1021.28 1021.21 1021.30 1021.55 1021.33 1021.59 1021.71 1021.78 1022.09 1022.36 1022.57 1022.64 1022.68 1022.80 1022.82 1022.76 1022.76 1022.69 1022.56 1022.53 1022.39 1022.33 1022.11 1022.18 1022.23 1022.45 1022.64 1022.76 1022.89 1022.96
1015.23 1016.23 1017.07 1017.61 1017.73 1017.90 1018.68 1019.22 1019.63 1020.24 1020.54 1020.92 1020.99 1021.28 1021.68 1021.70 1021.75 1021.97 1022.13 1022.20 1022.25 1022.13 1022.73 1023.05 1023.23 1023.27 1023.17 1022.95 1022.78 1022.81 1022.78 1022.55 1022.60 1022.56 1022.38 1022.08 1022.24 1022.52 1022.46 1022.83 1023.03 1023.15 1023.18
1015.14 1016.19 1017.11 1017.65 1017.88 1018.52 1018.92 1019.26 1019.83 1020.51 1021.04 1021.52 1021.55 1021.51 1021.77 1021.91 1021.82 1022.04 1022.26 1022.76 1022.90 1022.68 1023.01 1023.17 1023.14 1023.20 1023.31 1023.05 1023.08 1023.03 1022.82 1022.72 1022.79 1022.72 1022.35 1022.21 1022.06 1022.75 1022.61 1022.79 1022.87 1022.93 1022.93
1015.10 1016.19 1017.14 1017.58 1018.24 1018.52 1019.35 1019.89 1020.39 1020.99 1021.13 1021.50 1022.09 1021.76 1022.06 1022.22 1022.06 1022.46 1022.72 1022.83 1022.77 1023.04 1023.14 1023.29 1023.46 1023.80 1023.70 1023.62 1023.41 1023.36 1023.07 1023.18 1022.97 1022.68 1022.30 1022.32 1022.14 1022.36 1022.51 1022.57 1022.77 1022.76 1022.71
1014.84 1016.15 1017.18 1017.76 1018.56 1019.00 1019.81 1020.35 1020.82 1020.51 1021.00 1021.53 1021.72 1022.05 1022.30 1022.23 1022.21 1022.50 1022.66 1023.02 1023.11 1023.12 1023.19 1023.48 1023.96 1024.08 1024.00 1023.91 1023.66 1023.40 1023.38 1023.41 1023.19 1022.71 1022.55 1022.20 1022.01 1022.05 1022.12 1022.61 1022.57 1022.52 1022.70
1014.85 1016.22 1017.36 1018.25 1018.99 1019.54 1020.02 1019.92 1020.09 1020.44 1020.78 1021.18 1021.51 1021.84 1021.89 1022.03 1022.17 1022.27 1022.77 1023.09 1023.15 1023.39 1023.69 1023.92 1024.15 1024.06 1024.12 1024.08 1023.88 1023.72 1023.57 1023.43 1023.25 1022.98 1022.67 1022.31 1022.36 1022.25 1022.31 1022.44 1022.57 1022.85 1022.91
1014.86 1016.23 1017.16 1018.49 1019.31 1019.60 1019.73 1019.74 1020.04 1020.30 1020.62 1020.83 1021.11 1021.48 1021.60 1022.11 1022.27 1022.63 1022.95 1023.14 1023.37 1023.88 1024.07 1024.02 1024.13 1024.14 1024.22 1024.16 1024.14 1024.15 1023.78 1023.58 1023.50 1023.18 1023.04 1023.04 1022.79 1022.42 1022.51 1022.64 1022.80 1022.89 1022.96
1015.27 1016.40 1017.39 1018.33 1019.03 1019.20 1019.10 1019.18 1019.41 1019.78 1020.27 1020.55 1021.24 1021.59 1021.88 1022.14 1022.51 1022.88 1023.32 1023.47 1023.69 1023.96 1024.10 1024.14 1024.24 1024.36 1024.42 1024.58 1024.87 1024.60 1024.15 1023.89 1023.55 1023.53 1023.33 1023.22 1023.24 1023.15 1023.05 1022.85 1022.81 1022.81 1022.86
1015.49 1016.34 1017.17 1018.15 1018.51 1018.76 1018.71 1018.92 1019.09 1019.52 1020.18 1020.72 1021.31 1021.75 1022.08 1022.38 1022.67 1022.96 1023.21 1023.51 1023.75 1023.93 1024.13 1024.12 1024.23 1024.42 1024.73 1024.86 1024.90 1024.99 1024.74 1024.48 1024.17 1024.14 1023.99 1023.84 1023.70 1023.57 1023.33 1023.13 1022.92 1022.74 1022.61
1015.63 1016.20 1016.86 1017.47 1017.81 1018.18 1018.31 1018.48 1018.95 1019.53 1020.11 1020.42 1020.93 1021.67 1022.11 1022.39 1022.63 1022.90 1023.09 1023.34 1023.56 1023.79 1024.11 1024.13 1024.09 1024.44 1024.67 1024.93 1024.97 1024.90 1024.87 1024.80 1024.62 1024.32 1024.22 1024.23 1024.13 1023.92 1023.59 1023.39 1023.12 1022.90 1022.68
1015.80 1016.26 1016.49 1016.94 1017.34 1017.57 1017.93 1018.33 1018.92 1019.83 1020.13 1020.65 1021.26 1021.70 1021.93 1022.05 1022.43 1022.71 1023.15 1023.66 1023.94 1024.02 1024.04 1024.03 1024.14 1024.18 1024.39 1024.69 1024.89 1024.89 1025.02 1024.72 1024.66 1024.89 1024.66 1024.59 1024.34 1024.14 1023.64 1023.43 1023.28 1023.07 1022.73
1015.66 1016.00 1016.48 1016.74 1016.91 1017.55 1018.08 1018.49 1018.98 1019.64 1020.24 1020.94 1021.50 1021.90 1022.08 1022.30 1022.64 1023.16 1023.55 1023.91 1024.03 1024.12 1024.09 1024.04 1023.85 1023.85 1024.22 1024.58 1024.69 1024.69 1024.75 1024.67 1024.60 1024.68 1024.80 1024.70 1024.56 1024.23 1023.77 1023.56 1023.41 1023.15 1022.82
Wind_Speed
17 18 17 17 16 16 16 17 16 17 17 17 17 16 16 16 16 17 17 16 16 17 18 17 17 16 16 15 13 12 10 6 4 6 11 14 15 17 16 16 16 12 11
19 18 18 18 16 16 16 17 17 17 16 17 17 17 16 16 17 16 16 16 16 18 17 16 16 16 16 15 13 12 11 10 7 5 12 17 17 20 17 13 13 10 9
18 18 17 19 18 16 16 19 17 18 18 17 17 16 16 16 17 16 15 15 16 17 16 16 16 16 16 15 13 13 13 13 12 4 4 7 12 20 17 13 12 13 11
18 15 16 18 17 16 17 17 16 18 18 16 17 17 16 15 16 16 14 14 16 17 17 17 17 16 16 14 13 12 13 14 12 13 1 9 13 18 18 17 16 15 13
18 15 15 17 17 16 17 18 16 17 16 16 17 17 16 15 16 16 14 15 15 17 17 17 16 15 13 11 11 12 12 11 12 5 14 12 10 13 15 16 14 14 14
14 14 14 14 16 17 18 18 16 16 15 16 17 15 16 16 16 16 14 14 15 16 15 15 14 14 12 13 14 16 16 19 16 13 12 12 8 12 14 14 13 14 13
13 14 12 11 15 17 17 18 16 16 14 15 16 15 15 15 15 14 13 13 14 14 13 13 12 11 10 10 11 13 16 17 13 11 10 9 6 13 14 14 12 12 13
15 14 11 11 15 16 16 16 16 15 14 15 15 15 14 13 12 12 12 11 11 11 10 9 9 7 6 6 7 9 12 14 12 5 11 8 11 13 12 12 11 11 10
12 11 9 8 16 17 14 14 14 14 14 15 14 13 12 11 11 10 10 9 8 7 7 8 6 5 6 7 10 8 8 11 8 8 11 5 11 12 12 12 11 10 9
10 10 9 13 14 11 11 14 13 12 12 13 13 11 11 11 11 10 10 7 6 4 5 5 3 4 2 4 8 9 11 9 8 8 7 4 13 15 13 13 12 11 11
3 5 8 9 12 12 11 11 11 12 12 12 9 10 8 5 6 8 8 7 4 2 2 2 2 6 5 7 8 10 10 6 9 5 4 8 13 14 13 13 13 13 12
10 11 15 12 12 11 10 9 7 9 6 6 6 6 5 4 6 7 8 10 9 8 5 5 7 5 5 5 1 8 4 6 5 5 4 8 10 12 11 12 12 13 13
16 11 8 10 9 11 8 7 5 5 4 5 4 3 3 3 2 3 3 3 4 7 4 5 4 1 4 2 2 3 4 5 4 4 4 7 9 9 8 8 10 12 14
14 14 11 9 6 10 6 5 5 5 5 3 3 2 2 1 3 1 3 2 4 3 4 4 3 5 6 6 6 5 4 4 3 3 4 4 6 5 5 6 7 10 12
16 15 14 9 7 6 6 6 7 6 5 4 4 6 5 4 4 5 6 5 6 6 7 5 6 6 6 6 6 5 5 4 6 3 3 6 5 4 4 7 9 10 11
15 15 13 10 6 6 9 9 7 5 5 4 4 4 4 2 4 4 3 4 5 6 5 5 4 4 4 4 5 6 6 5 6 6 5 2 5 4 8 8 9 10 11
14 15 11 11 8 12 9 8 7 5 4 2 2 5 5 4 5 5 5 5 4 5 4 3 4 4 4 5 6 5 6 6 7 7 5 4 2 7 8 8 6 8 10
16 15 12 10 14 12 8 5 6 5 3 5 2 5 6 4 6 6 4 3 4 2 3 3 4 5 5 5 4 5 5 6 8 6 5 4 5 4 7 8 4 8 9
17 16 9 9 12 12 6 4 4 6 6 5 4 4 3 5 4 4 4 5 4 3 3 4 5 4 4 5 6 5 4 5 6 8 9 6 5 5 4 5 6 11 5
17 14 12 8 10 7 4 4 3 3 4 4 4 4 6 4 3 4 5 3 2 4 4 4 2 3 3 4 7 7 4 4 6 7 7 6 6 6 4 5 5 7 16
17 15 13 12 10 7 5 4 4 4 4 4 4 6 4 5 4 6 5 5 5 4 4 4 3 4 4 4 4 5 4 5 6 5 6 5 6 7 7 5 4 3 3
13 15 13 11 12 9 5 4 4 5 4 4 5 4 6 4 6 6 4 3 4 3 4 4 4 3 2 4 4 5 6 5 4 7 4 5 7 5 5 7 6 4 2
12 13 14 10 12 10 8 5 5 5 4 4 5 4 5 5 4 2 3 3 3 3 3 4 4 5 3 4 6 2 6 4 6 4 5 5 7 4 5 6 6 5 3
8 8 13 14 13 10 9 7 8 6 5 3 5 5 6 5 3 2 1 1 1 2 4 3 4 2 3 3 3 5 6 4 6 8 2 5 6 7 7 5 5 6 5
10 10 9 10 11 8 5 8 6 8 5 5 5 5 3 3 4 1 6 7 6 4 4 4 5 3 2 2 1 3 4 3 3 3 6 4 4 5 5 4 5 4 6
10 9 8 12 9 7 5 5 6 8 6 6 5 2 1 3 4 7 7 6 5 5 5 5 5 1 1 3 3 4 4 3 3 2 4 5 7 5 4 5 5 5 5
Wind_Direction
126 131 125 118 115 111 111 104 101 98 93 91 88 85 83 80 77 75 74 72 69 67 64 62 59 55 52 46 36 25 24 28 70 85 80 63 59 55 38 30 27 38 35
125 134 123 117 115 118 112 104 101 96 94 94 93 90 86 82 76 74 73 72 69 68 67 62 58 53 52 43 30 19 7 357 12 39 90 72 57 55 48 39 35 33 24
133 130 125 120 122 119 114 108 102 101 98 95 90 86 83 80 78 73 70 71 72 68 66 62 60 55 48 40 26 14 2 351 342 26 269 86 58 50 35 40 39 32 45
127 139 132 118 123 119 111 104 105 102 103 101 96 91 85 81 79 77 75 78 75 74 71 66 60 54 48 35 23 7 357 342 333 333 85 58 63 43 39 29 27 26 30
132 127 122 121 121 116 109 100 101 101 103 100 95 93 88 82 76 75 76 77 77 73 68 65 60 53 43 27 12 1 351 336 328 16 65 45 37 40 37 36 26 26 24
122 117 116 122 118 113 101 100 99 100 101 99 95 92 87 82 80 75 75 75 73 68 63 58 50 41 29 21 6 356 356 354 343 81 76 58 44 32 33 34 30 27 22
102 110 104 122 123 108 108 104 105 99 98 98 96 92 89 88 87 82 76 73 72 66 57 51 47 41 25 16 6 352 350 348 350 90 79 75 40 39 29 25 27 28 23
111 113 121 123 111 104 101 103 98 101 99 95 94 93 95 93 91 86 83 74 68 64 64 53 42 32 33 7 354 357 346 343 342 357 90 73 40 36 25 18 19 17 20
89 96 124 159 114 104 104 102 100 102 105 103 101 104 110 107 105 103 86 76 68 62 54 50 36 23 12 351 343 348 347 329 327 60 68 58 52 38 12 3 4 4 4
85 118 158 145 109 108 104 106 107 111 109 109 119 132 135 141 143 131 119 89 73 51 48 43 2 346 331 311 309 334 349 343 345 83 73 57 52 40 19 4 360 357 4
158 160 174 121 129 123 123 114 111 120 131 128 140 155 158 181 158 148 113 116 103 155 151 181 268 295 311 252 285 310 9 359 338 54 80 58 54 41 20 13 9 12 12
181 172 165 155 132 136 122 146 146 149 158 161 178 166 219 177 144 139 145 158 181 193 191 229 240 275 317 11 33 20 2 349 342 11 65 60 54 49 31 21 18 16 16
156 142 133 108 122 125 146 157 161 181 167 126 98 75 41 73 205 139 49 217 183 216 189 210 220 44 18 18 38 39 5 353 348 354 82 47 37 37 41 35 25 20 20
129 128 131 122 133 142 166 175 157 108 94 81 98 82 155 56 42 53 158 80 58 34 27 32 355 27 21 358 25 7 18 13 336 319 102 87 67 41 36 46 44 27 23
146 144 130 139 132 145 139 83 85 82 94 110 80 36 13 35 24 26 36 46 46 19 28 13 21 21 12 357 355 1 346 333 318 321 310 140 151 120 64 54 47 36 21
126 119 125 140 128 125 91 109 101 96 77 57 52 55 50 29 68 64 51 34 35 58 31 31 16 359 328 310 327 346 335 337 352 340 329 20 182 129 102 77 56 34 15
131 127 137 139 152 115 117 106 105 91 90 63 68 78 88 31 56 58 48 53 35 39 27 350 344 351 348 338 340 340 321 350 354 326 332 327 357 137 125 116 88 33 15
133 134 141 151 130 122 114 110 110 137 159 88 71 75 53 63 68 77 84 58 30 315 54 18 345 4 341 335 338 311 8 354 332 319 326 340 304 166 164 154 91 11 23
135 132 142 138 119 129 133 103 187 120 111 112 105 105 143 108 105 144 87 63 341 6 13 28 16 350 345 334 319 332 360 339 329 331 315 306 289 27 22 139 11 5 39
130 132 132 125 131 133 125 162 107 96 110 138 143 145 177 115 105 81 106 111 27 13 28 30 331 328 331 323 332 319 326 353 318 298 315 344 14 14 7 28 22 18 355
130 136 144 139 152 171 184 172 153 147 147 135 132 88 91 103 95 41 40 39 46 24 16 339 331 354 335 334 330 330 314 303 337 348 0 347 342 339 358 28 25 9 332
129 128 133 156 170 199 211 193 146 140 157 126 108 117 99 78 66 100 73 34 45 8 327 5 2 332 354 352 333 320 319 322 296 348 339 343 3 355 355 342 322 309 17
146 148 148 177 183 203 204 162 150 116 95 117 132 143 108 94 68 65 86 63 24 8 354 351 332 343 353 344 301 314 318 311 329 329 333 336 346 345 331 331 316 331 327
147 157 172 184 185 202 194 171 155 156 164 147 135 113 133 136 120 19 354 271 69 20 329 321 341 21 346 304 325 341 319 319 317 322 337 351 339 331 322 326 336 343 332
170 181 197 170 192 155 182 155 165 123 125 103 87 113 139 158 186 254 42 43 21 1 328 297 284 256 255 310 315 302 303 289 322 334 320 317 308 308 318 322 330 323 325
174 185 189 195 138 145 126 102 87 103 102 110 91 51 267 62 43 54 48 25 359 338 328 322 294 204 77 287 273 282 277 261 270 292 290 307 302 302 305 339 326 327 322